Home   Weather   1°17'N, 103°50'E   Past weeks
Flag for Singapore

Past Weather in 1°17'N, 103°50'E, Singapore — Yesterday and Last 2 Weeks

Now
84 °F

Passing clouds.


Feels Like: 92 °F
Forecast: 91 / 80 °F
Wind: 8 mph from Southeast

Location: Singapore / Paya Lebar

Current Time: Aug 21, 2019 at 12:11:03 am

Latest Report: Aug 20, 2019 at 11:00 pm


Visibility: N/A

Pressure: 29.80 "Hg

Humidity: 74%

Dew Point: 75 °F

Location of 1°17'N, 103°50'ELocation

Past Weather in 1°17'N, 103°50'E — Graph

°F

1°17'N, 103°50'E Temperature Yesterday

Maximum temperature yesterday: 91 °F (at 2:00 pm)
Minimum temperature yesterday: 82 °F (at 4:00 am)
Average temperature yesterday: 86 °F

High & Low Weather Summary for the Past Weeks

 TemperatureHumidityPressure
High91 °F (Aug 12, 2:00 pm)89% (Aug 11, 7:00 am)29.92 "Hg (Aug 11, 7:00 am)
Low82 °F (Aug 6, 3:00 am)46% (Aug 19, 3:00 pm)29.71 "Hg (Aug 7, 3:00 pm)
Average86 °F73%29.81 "Hg
* Reported Aug 5 11:00 pm — Aug 20 11:00 pm, 1°17'N, 103°50'E. Weather by CustomWeather, © 2019

Note: Actual official high and low records may vary slightly from our data, if they occured in-between our weather recording intervals... More about our weather records

Advertising

1°17'N, 103°50'E Weather History for the Previous 24 Hours

Scroll right to see more
 ConditionsComfort  
Time TempWeatherWind HumidityBarometerVisibility
11:00 pm
Tue, Aug 20
84 °FPassing clouds.8 mph74%29.80 "HgN/A
10:00 pm84 °FPassing clouds.9 mph74%29.80 "HgN/A
9:00 pm84 °FPartly cloudy.8 mph74%29.80 "HgN/A
8:00 pm86 °FPassing clouds.9 mph70%29.77 "HgN/A
7:00 pm86 °FPartly sunny.10 mph66%29.77 "HgN/A
6:00 pm88 °FPartly sunny.12 mph62%29.74 "HgN/A
5:00 pm90 °FPartly sunny.10 mph59%29.74 "HgN/A
4:00 pm91 °FPartly sunny.10 mph52%29.74 "HgN/A
3:00 pm91 °FPartly sunny.10 mph56%29.77 "HgN/A
2:00 pm91 °FPartly sunny.9 mph59%29.80 "HgN/A
1:00 pm90 °FPartly sunny.8 mph63%29.80 "HgN/A
12:00 pm90 °FPartly sunny.7 mph63%29.83 "HgN/A
11:00 am88 °FPartly sunny.9 mph70%29.86 "HgN/A
10:00 am86 °FPartly sunny.8 mph70%29.86 "HgN/A
9:00 am84 °FScattered clouds.7 mph79%29.86 "HgN/A
8:00 am82 °FPartly sunny.5 mph84%29.83 "HgN/A
7:00 am82 °FPassing clouds.6 mph84%29.83 "HgN/A
6:00 am82 °FPassing clouds.5 mph84%29.83 "HgN/A
5:00 am82 °FPassing clouds.8 mph84%29.80 "HgN/A
4:00 am82 °FPassing clouds.8 mph84%29.80 "HgN/A
3:00 am84 °FPassing clouds.7 mph79%29.80 "HgN/A
2:00 am84 °FPassing clouds.6 mph79%29.83 "HgN/A
1:00 am84 °FPassing clouds.9 mph79%29.83 "HgN/A
12:00 am84 °FPassing clouds.8 mph84%29.86 "HgN/A
Weather by CustomWeather, © 2019

See weather overview